DG7YEO-13 Weather Reports


time (UTC)temp
C
wind
direction
speed
KPH
gust
KPH
rain 1hr
cm
rain 24hr
cm
rain mn
cm
humidity
%
barometer
mb
20260504050205 13 45 0.0 0.0 0.00 0.03 0.00 92 1011.7
20260504044705 13 45 0.0 0.0 0.00 0.03 0.00 92 1011.4
20260504043205 13 45 0.0 0.0 0.00 0.03 0.00 92 1011.3
20260504041705 13 45 0.0 0.0 0.00 0.03 0.00 92 1011.5
20260504040205 13 45 0.0 0.0 0.00 0.03 0.00 92 1011.6
20260504034705 13 45 0.0 0.0 0.00 0.03 0.00 92 1011.7
20260504033205 13 45 0.0 0.0 0.00 0.03 0.00 91 1011.7
20260504031705 13 45 0.0 0.0 0.00 0.03 0.00 91 1011.7
20260504030204 13 45 0.0 0.0 0.00 0.03 0.00 90 1011.6
20260504024705 13 45 0.0 0.0 0.00 0.03 0.00 90 1011.4
20260504023205 13 45 0.0 0.0 0.00 0.03 0.00 89 1011.4
20260504021705 14 45 0.0 0.0 0.00 0.03 0.00 89 1011.4
20260504020205 14 45 0.0 0.0 0.00 0.03 0.00 88 1011.4
20260504014704 14 45 0.0 0.0 0.00 0.03 0.00 88 1011.3
20260504013205 15 45 0.0 1.6 0.00 0.03 0.00 89 1011.2
20260504011705 15 45 0.0 1.6 0.00 0.03 0.00 89 1011.4
20260504010205 15 45 0.0 3.2 0.00 0.03 0.00 88 1011.3
20260504004704 15 51 0.0 1.6 0.00 0.03 0.00 88 1011.3
20260504003205 15 50 0.0 1.6 0.00 0.03 0.00 88 1011.2
20260504001705 15 57 0.0 4.8 0.00 0.03 0.00 87 1011.1
20260504000205 15 338 0.0 1.6 0.00 0.03 0.00 87 1010.9
20260503234705 15 5 0.0 1.6 0.00 0.03 0.00 87 1011.1
20260503233205 15 5 0.0 0.0 0.00 0.03 0.00 87 1011.2
20260503231705 15 5 0.0 0.0 0.00 0.03 0.00 85 1011.1
20260503230205 15 5 0.0 0.0 0.00 0.03 0.00 85 1011.0
20260503224704 16 5 0.0 1.6 0.00 0.03 0.00 84 1010.8
20260503223205 16 5 0.0 1.6 0.00 0.03 0.00 84 1010.9
20260503221705 16 22 0.0 0.0 0.00 0.03 0.00 84 1010.8
20260503220205 16 22 0.0 1.6 0.00 0.03 0.03 84 1010.9
20260503214704 16 22 0.0 4.8 0.00 0.03 0.03 83 1010.9
20260503213205 16 21 0.0 1.6 0.00 0.03 0.03 83 1011.0
20260503211704 16 21 0.0 0.0 0.00 0.08 0.03 83 1011.1
20260503210205 16 21 0.0 1.6 0.00 0.10 0.03 83 1011.0
20260503204705 16 21 0.0 1.6 0.00 0.25 0.03 83 1011.1
20260503203205 16 21 0.0 1.6 0.00 0.43 0.03 83 1011.1
20260503201705 16 20 0.0 1.6 0.00 0.46 0.03 82 1011.1
20260503200213 16 20 0.0 3.2 0.00 0.51 0.03 82 1011.1
20260503194705 16 5 0.0 3.2 0.00 0.56 0.03 82 1011.2
20260503193205 16 5 0.0 3.2 0.00 0.56 0.03 81 1011.1
20260503191705 16 355 0.0 3.2 0.00 0.64 0.03 81 1010.9
20260503190205 16 55 1.6 6.4 0.00 0.64 0.03 81 1010.7
20260503184705 16 15 1.6 4.8 0.00 0.64 0.03 81 1010.7
20260503183205 17 317 1.6 4.8 0.00 0.64 0.03 80 1010.4
20260503181705 17 41 1.6 6.4 0.00 0.64 0.03 79 1010.5
20260503180205 17 13 1.6 8.0 0.00 0.64 0.03 79 1010.4
20260503174705 17 71 1.6 8.0 0.00 0.64 0.03 78 1010.4
20260503173205 17 47 1.6 4.8 0.00 0.64 0.03 76 1010.4
20260503171705 17 5 1.6 9.7 0.00 0.64 0.03 74 1010.3
20260503170205 18 286 1.6 14.5 0.00 0.64 0.03 70 1010.2
20260503160205 19 257 1.6 9.7 0.00 0.64 0.03 65 1010.0
20260503150205 19 38 1.6 8.0 0.00 0.64 0.03 67 1010.0
20260503140205 22 5 3.2 11.3 0.00 0.64 0.03 46 1009.8
20260503130205 23 299 3.2 9.7 0.00 0.64 0.03 42 1009.7
20260503120205 23 70 3.2 17.7 0.00 0.64 0.03 44 1009.7
20260503110205 23 0 3.2 11.3 0.00 0.64 0.03 47 1010.0
20260503100205 23 51 3.2 12.9 0.00 0.64 0.03 56 1010.4
20260503090205 21 88 3.2 11.3 0.00 0.64 0.03 64 1010.8
20260503080205 20 24 1.6 6.4 0.00 0.64 0.03 72 1010.8
20260503071705 17 55 1.6 6.4 0.00 0.64 0.03 84 1010.9
20260503070205 16 63 0.0 8.0 0.00 0.64 0.03 90 1011.0
20260503060206 15 57 0.0 6.4 0.03 0.64 0.03 96 1010.8
20260503054705 15 65 3.2 11.3 0.00 0.61 0.00 96 1010.8
20260503053205 14 61 1.6 6.4 0.00 0.61 0.00 96 1010.6